QPF
0.00 0.00 0.00 0.00 0.00 0.00 0.00 0.00 0.00 0.00 0.00 0.00 0.00 0.00 0.00 0.00 0.00 0.00 0.00 0.00 0.00 0.00 0.00 0.00 0.00 0.00 0.00 0.00 0.00 0.01 0.01 0.01 0.01 0.03 0.02 0.02 0.04 0.05 0.08 0.07 0.06 0.07 0.06 0.06
0.00 0.00 0.00 0.00 0.00 0.00 0.00 0.00 0.00 0.00 0.00 0.00 0.00 0.00 0.00 0.00 0.00 0.00 0.00 0.00 0.00 0.00 0.00 0.00 0.00 0.00 0.00 0.01 0.00 0.01 0.01 0.01 0.01 0.02 0.01 0.01 0.02 0.03 0.06 0.08 0.05 0.05 0.04 0.04
0.00 0.00 0.00 0.00 0.00 0.00 0.00 0.00 0.00 0.00 0.00 0.00 0.00 0.00 0.00 0.00 0.00 0.00 0.00 0.00 0.00 0.00 0.00 0.00 0.00 0.00 0.00 0.00 0.00 0.00 0.00 0.01 0.01 0.01 0.01 0.01 0.01 0.02 0.03 0.04 0.06 0.07 0.07 0.05
0.00 0.00 0.00 0.00 0.00 0.00 0.00 0.00 0.00 0.00 0.00 0.00 0.00 0.00 0.00 0.00 0.00 0.00 0.00 0.00 0.01 0.01 0.00 0.00 0.00 0.01 0.01 0.00 0.01 0.01 0.01 0.01 0.01 0.02 0.02 0.02 0.02 0.02 0.02 0.03 0.03 0.04 0.06 0.07
0.00 0.00 0.00 0.00 0.00 0.00 0.00 0.00 0.00 0.00 0.00 0.00 0.00 0.00 0.00 0.00 0.00 0.00 0.00 0.00 0.01 0.00 0.01 0.01 0.01 0.01 0.01 0.01 0.01 0.01 0.01 0.02 0.02 0.02 0.03 0.02 0.02 0.02 0.02 0.02 0.02 0.02 0.02 0.02
0.00 0.00 0.00 0.00 0.00 0.00 0.00 0.00 0.00 0.00 0.00 0.00 0.00 0.00 0.00 0.00 0.00 0.00 0.00 0.01 0.01 0.01 0.01 0.02 0.02 0.02 0.02 0.02 0.02 0.02 0.02 0.02 0.02 0.02 0.03 0.03 0.03 0.03 0.02 0.02 0.02 0.03 0.03 0.02
0.00 0.00 0.00 0.00 0.00 0.00 0.00 0.00 0.00 0.00 0.00 0.00 0.00 0.00 0.00 0.00 0.00 0.00 0.00 0.01 0.01 0.02 0.02 0.03 0.03 0.03 0.03 0.03 0.02 0.02 0.02 0.02 0.02 0.02 0.02 0.03 0.04 0.03 0.03 0.03 0.03 0.03 0.03 0.03
0.00 0.00 0.00 0.00 0.00 0.00 0.00 0.00 0.00 0.00 0.00 0.00 0.00 0.00 0.00 0.00 0.01 0.01 0.01 0.02 0.03 0.04 0.04 0.05 0.05 0.04 0.04 0.03 0.02 0.02 0.02 0.02 0.02 0.02 0.02 0.02 0.02 0.03 0.03 0.03 0.02 0.02 0.02 0.02
0.00 0.00 0.00 0.00 0.00 0.00 0.00 0.00 0.00 0.00 0.00 0.00 0.00 0.01 0.01 0.02 0.02 0.02 0.02 0.02 0.04 0.04 0.04 0.04 0.04 0.04 0.03 0.03 0.02 0.01 0.02 0.02 0.02 0.02 0.02 0.02 0.02 0.02 0.02 0.02 0.02 0.02 0.02 0.02
0.00 0.00 0.00 0.00 0.00 0.00 0.00 0.00 0.00 0.00 0.00 0.01 0.01 0.01 0.01 0.02 0.02 0.02 0.03 0.03 0.04 0.04 0.03 0.04 0.04 0.03 0.03 0.03 0.02 0.02 0.01 0.01 0.01 0.01 0.01 0.01 0.01 0.01 0.01 0.01 0.01 0.02 0.01 0.01
0.00 0.00 0.00 0.00 0.00 0.00 0.00 0.00 0.00 0.01 0.01 0.01 0.01 0.01 0.01 0.01 0.02 0.03 0.03 0.03 0.04 0.04 0.04 0.04 0.04 0.03 0.03 0.03 0.02 0.01 0.01 0.01 0.01 0.01 0.01 0.01 0.01 0.01 0.01 0.01 0.02 0.02 0.02 0.02
0.01 0.00 0.00 0.00 0.00 0.00 0.00 0.00 0.01 0.01 0.01 0.01 0.01 0.01 0.01 0.01 0.01 0.02 0.02 0.02 0.03 0.03 0.03 0.03 0.03 0.05 0.05 0.04 0.04 0.03 0.02 0.01 0.01 0.01 0.01 0.01 0.02 0.02 0.03 0.03 0.03 0.03 0.03 0.03
0.00 0.00 0.01 0.01 0.01 0.01 0.01 0.01 0.01 0.02 0.02 0.02 0.02 0.01 0.01 0.01 0.01 0.02 0.02 0.03 0.03 0.03 0.02 0.02 0.02 0.04 0.06 0.08 0.06 0.04 0.03 0.02 0.01 0.01 0.01 0.02 0.02 0.03 0.04 0.04 0.04 0.04 0.04 0.04
0.01 0.01 0.01 0.02 0.02 0.01 0.01 0.02 0.02 0.02 0.02 0.02 0.01 0.01 0.01 0.01 0.01 0.01 0.02 0.03 0.03 0.03 0.02 0.02 0.02 0.03 0.03 0.03 0.03 0.03 0.03 0.03 0.02 0.02 0.02 0.02 0.02 0.02 0.02 0.02 0.03 0.04 0.04 0.05
0.02 0.02 0.02 0.02 0.02 0.02 0.02 0.01 0.01 0.01 0.01 0.01 0.01 0.01 0.01 0.01 0.01 0.01 0.02 0.02 0.02 0.01 0.02 0.02 0.03 0.04 0.04 0.04 0.03 0.04 0.03 0.03 0.03 0.03 0.02 0.02 0.01 0.01 0.01 0.02 0.04 0.04 0.05 0.06
0.03 0.03 0.02 0.02 0.02 0.03 0.02 0.02 0.01 0.01 0.01 0.01 0.01 0.02 0.02 0.01 0.01 0.01 0.01 0.01 0.01 0.01 0.01 0.01 0.02 0.02 0.03 0.03 0.03 0.03 0.03 0.04 0.04 0.03 0.03 0.02 0.02 0.02 0.02 0.03 0.04 0.05 0.06 0.05
0.04 0.04 0.03 0.02 0.03 0.03 0.03 0.02 0.01 0.01 0.01 0.01 0.01 0.02 0.02 0.01 0.01 0.01 0.00 0.00 0.00 0.00 0.00 0.00 0.00 0.01 0.01 0.01 0.01 0.02 0.02 0.02 0.03 0.03 0.04 0.04 0.03 0.03 0.03 0.03 0.03 0.03 0.04 0.04
0.04 0.05 0.04 0.03 0.03 0.03 0.03 0.02 0.01 0.01 0.01 0.01 0.01 0.01 0.01 0.01 0.01 0.01 0.00 0.00 0.00 0.00 0.00 0.00 0.00 0.00 0.00 0.00 0.00 0.01 0.01 0.01 0.01 0.01 0.02 0.03 0.03 0.03 0.03 0.03 0.03 0.03 0.03 0.03
0.03 0.03 0.03 0.03 0.02 0.02 0.02 0.02 0.01 0.01 0.01 0.00 0.00 0.01 0.01 0.01 0.01 0.01 0.00 0.00 0.00 0.00 0.00 0.00 0.00 0.00 0.00 0.00 0.00 0.00 0.01 0.01 0.02 0.02 0.02 0.02 0.02 0.02 0.02 0.02 0.02 0.02 0.02 0.02
0.02 0.02 0.02 0.02 0.02 0.02 0.02 0.01 0.01 0.02 0.01 0.01 0.01 0.01 0.01 0.01 0.01 0.01 0.01 0.00 0.00 0.00 0.00 0.00 0.00 0.00 0.00 0.00 0.01 0.01 0.01 0.01 0.01 0.02 0.02 0.02 0.02 0.02 0.02 0.02 0.02 0.02 0.02 0.02
0.01 0.01 0.01 0.02 0.03 0.03 0.02 0.02 0.02 0.02 0.02 0.01 0.01 0.02 0.02 0.01 0.01 0.01 0.01 0.01 0.00 0.00 0.00 0.00 0.00 0.00 0.00 0.00 0.01 0.01 0.02 0.02 0.02 0.02 0.02 0.02 0.02 0.02 0.02 0.02 0.01 0.01 0.02 0.02
0.01 0.01 0.01 0.02 0.02 0.02 0.02 0.02 0.02 0.02 0.02 0.01 0.01 0.01 0.01 0.01 0.01 0.01 0.01 0.01 0.01 0.01 0.01 0.00 0.01 0.01 0.01 0.01 0.01 0.01 0.01 0.01 0.02 0.02 0.02 0.02 0.02 0.01 0.01 0.01 0.01 0.01 0.02 0.02
0.02 0.01 0.02 0.02 0.01 0.02 0.02 0.02 0.02 0.02 0.02 0.02 0.02 0.02 0.01 0.01 0.01 0.01 0.01 0.01 0.01 0.01 0.01 0.01 0.01 0.02 0.01 0.01 0.01 0.02 0.02 0.02 0.02 0.02 0.02 0.02 0.02 0.01 0.01 0.01 0.01 0.02 0.02 0.02
0.02 0.01 0.01 0.01 0.01 0.02 0.02 0.02 0.02 0.02 0.02 0.02 0.03 0.02 0.01 0.01 0.01 0.01 0.01 0.01 0.01 0.02 0.02 0.02 0.02 0.02 0.02 0.02 0.02 0.02 0.02 0.02 0.02 0.02 0.02 0.01 0.01 0.02 0.02 0.01 0.01 0.01 0.01 0.01
0.02 0.02 0.03 0.03 0.03 0.03 0.04 0.04 0.03 0.03 0.02 0.03 0.03 0.03 0.02 0.02 0.02 0.02 0.01 0.01 0.02 0.02 0.03 0.03 0.03 0.02 0.02 0.02 0.02 0.02 0.01 0.01 0.01 0.01 0.01 0.01 0.01 0.02 0.02 0.02 0.02 0.02 0.01 0.01
0.03 0.03 0.03 0.04 0.04 0.05 0.05 0.04 0.04 0.03 0.03 0.02 0.03 0.04 0.03 0.03 0.03 0.03 0.03 0.02 0.02 0.02 0.02 0.02 0.02 0.02 0.02 0.02 0.02 0.02 0.01 0.01 0.01 0.01 0.01 0.01 0.01 0.01 0.01 0.01 0.01 0.02 0.02 0.01
0.04 0.04 0.04 0.04 0.04 0.04 0.05 0.04 0.04 0.03 0.03 0.04 0.04 0.04 0.03 0.03 0.03 0.03 0.02 0.02 0.01 0.01 0.01 0.01 0.01 0.01 0.01 0.02 0.01 0.01 0.01 0.02 0.02 0.02 0.02 0.01 0.01 0.01 0.01 0.01 0.01 0.01 0.01 0.01
MSLP
1012.08 1011.99 1011.93 1011.87 1011.81 1011.72 1011.57 1011.35 1011.03 1010.62 1010.14 1009.61 1009.09 1008.63 1008.28 1008.06 1008.01 1008.12 1008.38 1008.76 1009.22 1009.72 1010.22 1010.71 1011.18 1011.61 1012.01 1012.39 1012.74 1013.07 1013.37 1013.63 1013.85 1014.02 1014.14 1014.24 1014.32 1014.40 1014.49 1014.61 1014.75 1014.92 1015.10 1015.27
1012.40 1012.20 1011.96 1011.69 1011.39 1011.07 1010.72 1010.33 1009.93 1009.50 1009.07 1008.66 1008.29 1007.99 1007.79 1007.69 1007.72 1007.85 1008.09 1008.42 1008.80 1009.24 1009.69 1010.16 1010.63 1011.09 1011.55 1012.00 1012.42 1012.80 1013.15 1013.44 1013.67 1013.85 1013.98 1014.08 1014.16 1014.26 1014.36 1014.50 1014.65 1014.81 1014.97 1015.11
1012.64 1012.34 1011.97 1011.53 1011.03 1010.52 1010.00 1009.49 1009.02 1008.60 1008.23 1007.93 1007.71 1007.57 1007.50 1007.51 1007.59 1007.73 1007.93 1008.19 1008.48 1008.82 1009.21 1009.62 1010.08 1010.56 1011.05 1011.55 1012.03 1012.47 1012.86 1013.19 1013.45 1013.65 1013.81 1013.93 1014.04 1014.16 1014.29 1014.45 1014.61 1014.78 1014.93 1015.04
1012.69 1012.33 1011.85 1011.29 1010.66 1010.02 1009.39 1008.82 1008.33 1007.94 1007.66 1007.48 1007.41 1007.40 1007.46 1007.56 1007.68 1007.82 1007.97 1008.14 1008.34 1008.57 1008.86 1009.21 1009.62 1010.09 1010.60 1011.12 1011.64 1012.13 1012.56 1012.92 1013.21 1013.44 1013.62 1013.77 1013.92 1014.07 1014.23 1014.42 1014.61 1014.79 1014.95 1015.05
1012.48 1012.08 1011.54 1010.91 1010.21 1009.51 1008.84 1008.26 1007.80 1007.48 1007.30 1007.26 1007.32 1007.46 1007.63 1007.81 1007.97 1008.10 1008.21 1008.30 1008.41 1008.54 1008.74 1009.01 1009.36 1009.79 1010.28 1010.81 1011.34 1011.84 1012.29 1012.68 1012.99 1013.24 1013.44 1013.62 1013.79 1013.97 1014.17 1014.39 1014.61 1014.82 1015.00 1015.13
1012.00 1011.57 1011.01 1010.35 1009.64 1008.93 1008.28 1007.74 1007.36 1007.14 1007.09 1007.18 1007.39 1007.66 1007.94 1008.20 1008.41 1008.55 1008.63 1008.67 1008.69 1008.75 1008.86 1009.05 1009.34 1009.72 1010.18 1010.68 1011.19 1011.69 1012.13 1012.51 1012.82 1013.07 1013.28 1013.47 1013.66 1013.87 1014.10 1014.35 1014.61 1014.86 1015.07 1015.23
1011.31 1010.85 1010.29 1009.64 1008.95 1008.28 1007.69 1007.24 1006.96 1006.86 1006.94 1007.18 1007.52 1007.92 1008.31 1008.66 1008.92 1009.09 1009.17 1009.19 1009.17 1009.18 1009.23 1009.37 1009.60 1009.93 1010.33 1010.79 1011.27 1011.72 1012.13 1012.47 1012.76 1012.99 1013.18 1013.36 1013.55 1013.76 1014.01 1014.29 1014.58 1014.87 1015.12 1015.33
1010.51 1010.03 1009.47 1008.84 1008.21 1007.61 1007.11 1006.77 1006.60 1006.62 1006.84 1007.20 1007.67 1008.19 1008.69 1009.12 1009.45 1009.67 1009.78 1009.81 1009.80 1009.79 1009.82 1009.92 1010.11 1010.39 1010.75 1011.15 1011.56 1011.95 1012.30 1012.59 1012.81 1013.00 1013.15 1013.30 1013.47 1013.67 1013.92 1014.21 1014.52 1014.84 1015.14 1015.41
1009.75 1009.25 1008.70 1008.11 1007.53 1007.02 1006.62 1006.38 1006.33 1006.47 1006.79 1007.27 1007.84 1008.45 1009.04 1009.55 1009.96 1010.24 1010.41 1010.49 1010.51 1010.52 1010.56 1010.66 1010.83 1011.07 1011.37 1011.71 1012.04 1012.36 1012.62 1012.83 1012.99 1013.10 1013.19 1013.29 1013.42 1013.60 1013.84 1014.12 1014.44 1014.79 1015.12 1015.43
1009.16 1008.65 1008.11 1007.57 1007.06 1006.63 1006.32 1006.18 1006.22 1006.45 1006.85 1007.40 1008.05 1008.72 1009.38 1009.96 1010.44 1010.80 1011.04 1011.18 1011.26 1011.32 1011.39 1011.50 1011.65 1011.87 1012.12 1012.39 1012.65 1012.87 1013.05 1013.17 1013.24 1013.27 1013.30 1013.34 1013.42 1013.56 1013.77 1014.04 1014.36 1014.71 1015.07 1015.41
1008.83 1008.32 1007.81 1007.32 1006.88 1006.53 1006.30 1006.23 1006.33 1006.62 1007.08 1007.66 1008.34 1009.05 1009.74 1010.37 1010.90 1011.32 1011.63 1011.85 1012.00 1012.12 1012.23 1012.35 1012.51 1012.70 1012.90 1013.10 1013.28 1013.41 1013.50 1013.53 1013.51 1013.47 1013.43 1013.42 1013.46 1013.56 1013.74 1013.99 1014.29 1014.64 1015.00 1015.36
1008.79 1008.30 1007.83 1007.40 1007.02 1006.73 1006.57 1006.55 1006.69 1007.01 1007.47 1008.06 1008.73 1009.44 1010.14 1010.79 1011.35 1011.82 1012.19 1012.47 1012.68 1012.85 1013.01 1013.15 1013.30 1013.46 1013.61 1013.75 1013.84 1013.89 1013.89 1013.84 1013.76 1013.66 1013.57 1013.52 1013.52 1013.60 1013.76 1013.99 1014.28 1014.61 1014.97 1015.32
1008.97 1008.52 1008.10 1007.72 1007.40 1007.17 1007.05 1007.06 1007.23 1007.54 1007.99 1008.55 1009.20 1009.89 1010.57 1011.21 1011.79 1012.29 1012.70 1013.03 1013.29 1013.50 1013.67 1013.83 1013.97 1014.09 1014.19 1014.26 1014.28 1014.26 1014.19 1014.08 1013.94 1013.81 1013.69 1013.62 1013.61 1013.68 1013.83 1014.06 1014.34 1014.65 1014.99 1015.33
1009.26 1008.86 1008.49 1008.16 1007.89 1007.70 1007.61 1007.65 1007.81 1008.11 1008.53 1009.06 1009.67 1010.32 1010.97 1011.60 1012.18 1012.69 1013.13 1013.49 1013.78 1014.02 1014.21 1014.36 1014.48 1014.57 1014.61 1014.62 1014.58 1014.49 1014.37 1014.22 1014.06 1013.91 1013.79 1013.73 1013.74 1013.82 1013.98 1014.21 1014.48 1014.79 1015.11 1015.42
1009.53 1009.18 1008.86 1008.57 1008.34 1008.18 1008.11 1008.16 1008.32 1008.60 1009.00 1009.49 1010.06 1010.67 1011.30 1011.91 1012.49 1013.01 1013.46 1013.84 1014.16 1014.41 1014.60 1014.75 1014.84 1014.89 1014.89 1014.84 1014.75 1014.62 1014.46 1014.29 1014.12 1013.98 1013.88 1013.85 1013.89 1014.00 1014.18 1014.43 1014.71 1015.01 1015.32 1015.60
1009.70 1009.38 1009.09 1008.83 1008.62 1008.48 1008.43 1008.48 1008.63 1008.91 1009.28 1009.76 1010.30 1010.89 1011.51 1012.11 1012.69 1013.22 1013.69 1014.09 1014.42 1014.68 1014.88 1015.02 1015.09 1015.10 1015.06 1014.97 1014.84 1014.68 1014.50 1014.32 1014.16 1014.04 1013.98 1013.99 1014.07 1014.22 1014.43 1014.69 1014.99 1015.29 1015.58 1015.85
1009.73 1009.43 1009.14 1008.89 1008.69 1008.56 1008.52 1008.57 1008.73 1009.00 1009.38 1009.84 1010.38 1010.97 1011.58 1012.20 1012.78 1013.33 1013.82 1014.25 1014.60 1014.87 1015.08 1015.21 1015.27 1015.26 1015.20 1015.08 1014.92 1014.74 1014.55 1014.38 1014.23 1014.14 1014.10 1014.14 1014.26 1014.44 1014.68 1014.97 1015.27 1015.57 1015.85 1016.10
1009.68 1009.37 1009.08 1008.82 1008.62 1008.49 1008.45 1008.50 1008.67 1008.95 1009.33 1009.80 1010.35 1010.95 1011.58 1012.21 1012.81 1013.38 1013.90 1014.35 1014.72 1015.01 1015.23 1015.36 1015.42 1015.41 1015.33 1015.20 1015.03 1014.84 1014.65 1014.48 1014.34 1014.26 1014.24 1014.31 1014.44 1014.64 1014.89 1015.18 1015.49 1015.78 1016.06 1016.30
1009.66 1009.33 1009.03 1008.75 1008.54 1008.40 1008.36 1008.42 1008.60 1008.89 1009.28 1009.77 1010.33 1010.94 1011.58 1012.22 1012.84 1013.43 1013.96 1014.43 1014.82 1015.13 1015.36 1015.51 1015.57 1015.56 1015.49 1015.36 1015.18 1014.99 1014.80 1014.62 1014.48 1014.40 1014.38 1014.44 1014.57 1014.76 1015.01 1015.28 1015.57 1015.86 1016.12 1016.35
1009.79 1009.46 1009.13 1008.85 1008.62 1008.48 1008.44 1008.51 1008.69 1008.98 1009.38 1009.87 1010.43 1011.04 1011.68 1012.32 1012.94 1013.53 1014.06 1014.53 1014.93 1015.25 1015.49 1015.65 1015.72 1015.72 1015.66 1015.53 1015.36 1015.16 1014.96 1014.78 1014.62 1014.52 1014.47 1014.50 1014.60 1014.76 1014.97 1015.22 1015.48 1015.75 1015.99 1016.21
1010.19 1009.85 1009.52 1009.23 1009.01 1008.86 1008.82 1008.89 1009.07 1009.36 1009.75 1010.22 1010.76 1011.35 1011.95 1012.56 1013.15 1013.71 1014.21 1014.66 1015.04 1015.36 1015.59 1015.75 1015.84 1015.84 1015.79 1015.66 1015.50 1015.30 1015.09 1014.88 1014.70 1014.56 1014.47 1014.45 1014.49 1014.60 1014.76 1014.96 1015.18 1015.42 1015.64 1015.84
1010.86 1010.54 1010.23 1009.95 1009.73 1009.60 1009.56 1009.62 1009.79 1010.06 1010.42 1010.85 1011.35 1011.87 1012.41 1012.95 1013.47 1013.95 1014.40 1014.79 1015.13 1015.41 1015.62 1015.77 1015.85 1015.86 1015.80 1015.69 1015.52 1015.32 1015.09 1014.86 1014.65 1014.46 1014.32 1014.24 1014.22 1014.26 1014.36 1014.51 1014.68 1014.88 1015.08 1015.27
1011.75 1011.47 1011.19 1010.94 1010.75 1010.62 1010.59 1010.64 1010.79 1011.03 1011.34 1011.71 1012.12 1012.55 1012.99 1013.42 1013.83 1014.22 1014.56 1014.87 1015.13 1015.35 1015.52 1015.64 1015.70 1015.70 1015.65 1015.53 1015.36 1015.16 1014.92 1014.67 1014.43 1014.20 1014.01 1013.87 1013.78 1013.76 1013.80 1013.89 1014.02 1014.17 1014.35 1014.52
1012.74 1012.51 1012.28 1012.06 1011.90 1011.79 1011.76 1011.80 1011.92 1012.11 1012.35 1012.64 1012.95 1013.27 1013.58 1013.89 1014.16 1014.41 1014.64 1014.84 1015.00 1015.14 1015.25 1015.32 1015.35 1015.34 1015.27 1015.16 1015.00 1014.79 1014.56 1014.29 1014.03 1013.77 1013.54 1013.35 1013.22 1013.14 1013.12 1013.16 1013.25 1013.37 1013.51 1013.66
1013.67 1013.49 1013.30 1013.13 1012.99 1012.90 1012.87 1012.90 1012.98 1013.12 1013.29 1013.49 1013.69 1013.89 1014.07 1014.23 1014.36 1014.48 1014.57 1014.64 1014.71 1014.75 1014.79 1014.81 1014.80 1014.77 1014.70 1014.59 1014.44 1014.24 1014.01 1013.76 1013.49 1013.22 1012.97 1012.76 1012.59 1012.47 1012.41 1012.41 1012.46 1012.54 1012.65 1012.78
1014.40 1014.26 1014.11 1013.97 1013.85 1013.77 1013.74 1013.75 1013.80 1013.89 1013.99 1014.10 1014.20 1014.28 1014.34 1014.37 1014.38 1014.36 1014.33 1014.29 1014.25 1014.22 1014.19 1014.16 1014.12 1014.07 1014.00 1013.89 1013.76 1013.58 1013.37 1013.14 1012.89 1012.63 1012.39 1012.17 1011.98 1011.85 1011.76 1011.72 1011.73 1011.78 1011.86 1011.95
1014.86 1014.74 1014.60 1014.47 1014.36 1014.29 1014.25 1014.25 1014.27 1014.32 1014.36 1014.41 1014.43 1014.42 1014.37 1014.30 1014.20 1014.08 1013.96 1013.83 1013.71 1013.61 1013.52 1013.45 1013.39 1013.33 1013.27 1013.18 1013.07 1012.93 1012.76 1012.56 1012.35 1012.12 1011.90 1011.69 1011.51 1011.36 1011.26 1011.20 1011.17 1011.18 1011.21 1011.26
Thickness
5783 5792 5793 5790 5790 5789 5785 5792 5789 5795 5800 5812 5818 5818 5818 5817 5815 5811 5807 5804 5801 5796 5791 5786 5782 5777 5774 5770 5766 5763 5758 5754 5750 5747 5745 5743 5741 5740 5739 5738 5737 5736 5734 5733
5767 5780 5782 5781 5788 5789 5788 5793 5795 5798 5801 5820 5822 5819 5815 5813 5810 5806 5804 5803 5800 5796 5790 5785 5780 5776 5772 5767 5763 5759 5755 5752 5749 5746 5743 5740 5738 5737 5735 5733 5732 5731 5729 5728
5758 5772 5767 5762 5782 5787 5788 5795 5795 5791 5802 5814 5811 5809 5809 5809 5808 5805 5804 5802 5799 5795 5790 5785 5780 5776 5770 5766 5762 5757 5753 5750 5747 5744 5740 5738 5736 5734 5731 5729 5727 5725 5723 5722
5755 5750 5736 5776 5800 5799 5792 5794 5800 5801 5804 5806 5805 5806 5808 5808 5806 5804 5803 5801 5797 5794 5789 5785 5781 5775 5770 5765 5759 5754 5750 5747 5744 5740 5737 5734 5731 5729 5726 5724 5722 5720 5718 5716
5745 5741 5752 5769 5782 5789 5783 5783 5798 5796 5797 5801 5803 5801 5801 5802 5803 5801 5801 5799 5796 5793 5789 5783 5778 5773 5767 5762 5757 5752 5747 5744 5741 5737 5734 5730 5726 5724 5722 5719 5717 5715 5712 5710
5733 5732 5738 5764 5781 5788 5782 5769 5791 5792 5790 5792 5792 5788 5791 5792 5794 5794 5793 5792 5789 5787 5783 5777 5773 5769 5763 5758 5753 5748 5744 5740 5737 5733 5729 5726 5722 5719 5716 5714 5711 5709 5705 5703
5723 5727 5748 5764 5771 5773 5753 5762 5781 5785 5784 5785 5783 5783 5782 5784 5783 5782 5781 5780 5779 5776 5772 5769 5766 5762 5755 5751 5747 5743 5739 5735 5732 5728 5724 5721 5717 5713 5710 5708 5705 5702 5698 5695
5718 5718 5732 5753 5759 5757 5759 5768 5773 5775 5777 5775 5773 5773 5772 5771 5770 5770 5768 5768 5768 5764 5760 5759 5757 5753 5747 5743 5740 5737 5733 5729 5725 5722 5719 5716 5710 5706 5703 5700 5697 5694 5691 5688
5723 5726 5733 5742 5747 5751 5756 5756 5760 5763 5766 5765 5762 5761 5760 5758 5757 5757 5756 5755 5755 5752 5748 5746 5745 5744 5738 5733 5731 5728 5725 5721 5717 5714 5711 5708 5704 5700 5696 5693 5691 5688 5685 5682
5710 5717 5724 5731 5736 5741 5745 5746 5750 5753 5755 5756 5752 5751 5748 5747 5745 5743 5743 5743 5743 5741 5737 5733 5732 5731 5728 5724 5722 5719 5716 5712 5709 5705 5702 5699 5697 5695 5691 5688 5686 5683 5679 5675
5696 5705 5711 5716 5722 5727 5731 5735 5738 5741 5744 5743 5741 5738 5736 5734 5732 5731 5730 5730 5730 5727 5724 5721 5720 5718 5715 5714 5712 5710 5706 5703 5701 5698 5695 5690 5686 5683 5682 5679 5677 5674 5672 5669
5686 5693 5698 5702 5710 5716 5718 5721 5725 5726 5727 5729 5728 5726 5725 5722 5720 5719 5717 5717 5716 5714 5712 5710 5708 5706 5704 5703 5702 5699 5696 5693 5692 5690 5686 5682 5678 5672 5665 5664 5661 5659 5658 5656
5675 5683 5689 5692 5698 5704 5707 5710 5713 5715 5715 5715 5715 5715 5712 5709 5707 5706 5705 5704 5703 5701 5700 5697 5696 5694 5693 5692 5691 5688 5685 5683 5682 5680 5677 5673 5670 5666 5660 5652 5648 5646 5644 5641
5664 5669 5673 5679 5685 5691 5695 5698 5701 5703 5703 5703 5702 5702 5700 5697 5695 5694 5692 5691 5691 5690 5688 5687 5685 5683 5681 5681 5679 5676 5674 5672 5670 5669 5666 5664 5660 5657 5654 5649 5643 5637 5630 5627
5654 5660 5665 5671 5674 5678 5682 5685 5686 5687 5688 5688 5688 5687 5686 5685 5684 5682 5681 5680 5679 5677 5676 5675 5673 5671 5669 5669 5668 5666 5664 5662 5660 5657 5655 5652 5650 5647 5643 5639 5634 5628 5622 5615
5643 5649 5654 5658 5661 5665 5669 5671 5672 5673 5674 5673 5673 5672 5672 5673 5671 5670 5669 5669 5667 5665 5663 5663 5661 5659 5658 5657 5655 5654 5652 5649 5647 5646 5643 5640 5637 5635 5632 5627 5623 5618 5613 5608
5631 5636 5641 5646 5650 5655 5658 5660 5662 5663 5663 5662 5661 5661 5660 5659 5658 5657 5656 5656 5655 5653 5651 5650 5649 5647 5646 5645 5644 5643 5641 5638 5634 5633 5631 5628 5625 5623 5619 5615 5611 5607 5603 5599
5625 5630 5635 5638 5642 5645 5647 5650 5651 5652 5651 5651 5650 5650 5648 5647 5646 5645 5644 5644 5643 5641 5640 5638 5637 5635 5634 5633 5632 5631 5629 5627 5624 5621 5618 5615 5613 5610 5608 5604 5601 5597 5593 5587
5619 5623 5628 5631 5634 5637 5638 5639 5640 5640 5640 5640 5640 5639 5637 5636 5635 5633 5633 5633 5632 5630 5627 5626 5621 5623 5622 5620 5619 5618 5617 5615 5612 5610 5607 5601 5601 5599 5596 5593 5590 5587 5584 5580
5612 5617 5621 5625 5627 5628 5629 5630 5630 5629 5630 5630 5629 5627 5625 5624 5623 5622 5622 5622 5620 5619 5616 5614 5613 5612 5611 5609 5607 5608 5606 5604 5602 5599 5595 5592 5590 5587 5585 5582 5579 5576 5574 5571
5605 5609 5612 5616 5618 5620 5620 5621 5621 5620 5619 5619 5617 5616 5614 5613 5613 5612 5611 5610 5606 5605 5604 5600 5602 5601 5600 5598 5596 5598 5596 5594 5591 5588 5585 5583 5581 5578 5575 5572 5569 5567 5565 5562
5597 5600 5603 5606 5608 5609 5610 5612 5612 5611 5610 5609 5608 5607 5605 5603 5603 5602 5600 5599 5596 5591 5594 5594 5592 5588 5587 5585 5588 5588 5586 5583 5581 5578 5576 5574 5572 5570 5567 5564 5562 5560 5558 5556
5590 5592 5594 5597 5598 5599 5600 5602 5602 5602 5600 5599 5598 5598 5597 5596 5596 5594 5590 5588 5587 5582 5584 5584 5579 5575 5573 5577 5579 5578 5576 5574 5572 5570 5568 5567 5565 5563 5561 5559 5557 5555 5553 5551
5581 5584 5586 5588 5590 5590 5590 5592 5592 5591 5591 5590 5590 5589 5588 5587 5586 5586 5584 5576 5574 5573 5575 5570 5566 5565 5563 5570 5571 5569 5568 5566 5565 5564 5563 5561 5559 5557 5556 5554 5553 5551 5549 5546
5575 5578 5580 5581 5582 5582 5581 5581 5581 5581 5582 5582 5581 5579 5580 5579 5578 5577 5575 5571 5566 5565 5567 5563 5559 5558 5560 5564 5563 5562 5561 5560 5560 5559 5557 5555 5554 5552 5550 5549 5548 5546 5544 5542
5570 5571 5573 5574 5574 5574 5575 5576 5576 5576 5576 5574 5573 5572 5572 5571 5570 5568 5566 5565 5563 5559 5560 5559 5557 5554 5557 5557 5557 5556 5556 5555 5553 5552 5551 5549 5547 5546 5545 5544 5541 5540 5538 5536
5565 5566 5566 5566 5567 5569 5570 5570 5570 5570 5570 5569 5567 5566 5565 5564 5563 5562 5561 5560 5558 5557 5556 5555 5554 5553 5553 5553 5552 5551 5550 5549 5548 5547 5545 5543 5542 5540 5539 5536 5535 5534 5532 5530